Preview of NWS' New Version of Forecast
This preview is not operational and should not be used for support decisions.

Regional Weather Roundup (RWR)

Issued by National Weather Service (NWS)

                            
000
ASUS44 KMEG 212200
RWRTN 
TENNESSEE HOURLY STATE WEATHER ROUNDUP
NATIONAL WEATHER SERVICE MEMPHIS TN
500 PM CDT SUN JUL 21 2019

TNZ002-004-019-021-049-052-054-088>092-212300-
WEST TENNESSEE
  
CITY           SKY/WX    TMP DP  RH WIND       PRES   REMARKS
MEMPHIS INTL   PTSUNNY   83  76  79 S7        29.94F HX  91           
NWS MEMPHIS      N/A     82 N/A N/A MISG        N/A                   
JACKSON        FAIR      88  77  69 S3        29.95F HX 100           
DYERSBURG      FAIR      88  79  74 S8        29.93F HX 103           
$$

TNZ008-025-027-028-033-062-065-066-212300-
NORTH MIDDLE TENNESSEE
  
CITY           SKY/WX    TMP DP  RH WIND       PRES   REMARKS
NASHVILLE      PTSUNNY   90  74  59 S13       29.96F HX  99           
CLARKSVILLE    FAIR      88  75  65 S9        29.94S HX  97           
SMYRNA         PTSUNNY   87  76  69 VRB5      29.97F HX  97           
CROSSVILLE     FAIR      75  70  84 CALM      30.06F                  
$$

TNZ061-075-076-078-094-096-097-212300-
SOUTH MIDDLE TENNESSEE
  
CITY           SKY/WX    TMP DP  RH WIND       PRES   REMARKS
$$

TNZ017-018-042-046-047-212300-
NORTHEAST TENNESSEE
  
CITY           SKY/WX    TMP DP  RH WIND       PRES   REMARKS
TRI CITIES     FAIR      89  70  53 W10       30.01F HX  94           
$$

TNZ012-013-036-069-073-074-212300-
CENTRAL EAST TENNESSEE
  
CITY           SKY/WX    TMP DP  RH WIND       PRES   REMARKS
KNOXVILLE      FAIR      88  68  51 SW12      29.99S HX  91           
OAK RIDGE      FAIR      87  71  58 W6        30.01F HX  93           
$$

TNZ083-085-099-212300-
SOUTHEAST TENNESSEE
  
CITY           SKY/WX    TMP DP  RH WIND       PRES   REMARKS
CHATTANOOGA    PTSUNNY   90  71  53 SW10      29.98F HX  96           
$$

SKY/WX REPORTED AS FAIR MEANS FEW OR NO CLOUDS BELOW
12 THOUSAND FEET.